User: anonymous   Login
Location: Unspecified
(0.0000°N, 0.0000°E)
Time: 10:01:41
(UTC+00:00)
Language:

NOSS 0 (E) - Orbit

View from above orbital plane
View from above orbital plane
View from above satellite
View from above satellite

Ground track
Ground track

The orbit data is extracted from the following two-line orbital elements,

1 05682U 71110E   17219.02679938 0.00000050  00000-0  52842-4 0    08
2 05682  69.9823 201.0900 0007000 254.9782 105.0218 13.74418821    02
Epoch (UTC): 07 August 2017 00:38:35
Eccentricity: 0.0007000
inclination: 69.9823°
perigee height: 978 km
apogee height: 989 km
right ascension of ascending node: 201.0900°
argument of perigee: 254.9782°
revolutions per day: 13.74418821
mean anomaly at epoch: 105.0218°
orbit number at epoch: 0

The dashed part of the orbit path shows where the satellite is in the earth's shadow,  

DLR